Dewpoint
-13 -5 -5 -2 -3 -7 -11 -13 -9 -5 5 8 5 3 6 8 8 11 13 13 14 13 14 14 14 14 12 11 12 13 13 10 9 9 9 9 10 10 10 10 10 9 9 8 7 7 6 5 5
-9 -8 -5 -4 -4 -8 -10 -6 -4 -0 9 9 8 7 8 10 11 12 13 13 13 13 14 13 10 10 10 10 12 13 14 14 14 14 13 12 12 12 13 12 11 10 11 11 11 11 12 7 5
-15 -8 -6 -5 -5 -7 -9 -6 -2 6 9 8 8 9 9 11 12 13 13 13 12 13 13 12 10 10 10 10 11 12 12 12 13 14 14 13 14 14 14 12 11 10 10 9 8 8 8 7 7
-10 -10 -7 -7 -9 -9 -7 -7 -0 6 8 8 8 9 10 12 12 13 12 12 13 13 13 13 12 10 10 11 11 11 11 11 11 11 11 11 11 12 11 11 11 11 11 11 11 11 11 10 9
-11 -10 -8 -7 -8 -10 -7 -8 -1 3 7 8 8 10 10 12 12 13 13 12 13 12 13 13 13 12 11 11 12 12 12 12 12 12 11 11 11 12 12 12 11 11 10 10 10 10 11 11 11
-12 -11 -8 -9 -10 -8 -9 -4 3 5 7 9 9 9 11 12 12 13 13 13 13 13 13 13 13 13 13 11 12 12 12 12 11 11 10 11 11 9 6 3 1 -1 -2 -2 -2 -2 -2 -1 5
-10 -9 -8 -9 -10 -9 -9 -1 4 5 6 7 8 8 11 12 11 13 13 13 13 13 13 13 13 13 13 12 11 11 11 10 9 9 8 3 -4 -7 -8 -9 -9 -9 -9 -10 -10 -10 -11 -10 -10
-10 -9 -8 -9 -10 -9 -7 -4 4 6 5 7 7 7 10 11 11 12 13 13 13 12 12 12 11 12 11 10 8 7 5 1 -4 -8 -9 -9 -9 -9 -9 -9 -10 -10 -10 -11 -12 -13 -13 -13 -12
-10 -8 -7 -8 -8 -9 -8 -4 -0 2 4 6 7 7 10 11 10 10 9 9 12 12 11 12 10 10 7 2 -2 -3 -6 -8 -8 -8 -8 -8 -9 -9 -10 -10 -10 -11 -12 -13 -14 -14 -15 -15 -14
-8 -7 -7 -9 -10 -9 -10 -9 -6 1 1 4 6 8 10 10 9 9 9 9 9 11 11 10 8 7 4 3 -3 -6 -7 -8 -8 -8 -9 -9 -9 -10 -10 -11 -11 -12 -13 -13 -14 -15 -16 -16 -15
-6 -5 -8 -10 -10 -10 -11 -10 -9 -5 -4 -0 5 7 9 9 9 9 9 8 9 8 8 8 8 6 4 4 3 2 2 -2 -7 -8 -9 -9 -9 -10 -9 -9 -10 -12 -12 -13 -13 -9 -14 -16 -16
-5 -7 -6 -8 -8 -8 -8 -10 -8 -9 -7 -1 2 7 8 9 9 9 8 8 8 7 6 6 5 1 2 2 2 2 2 -0 -3 -8 -8 -8 -4 -9 -10 -10 -11 -11 -12 -13 -14 -12 -15 -16 -16
-7 -7 -6 -6 -6 -6 -7 -7 -9 -9 -8 -1 -2 5 6 8 8 8 7 7 6 6 5 4 2 -3 -4 1 2 1 1 0 -3 -5 -8 -9 -7 -9 -9 -10 -10 -11 -12 -13 -13 -13 -15 -12 -7
-6 -5 -6 -5 -5 -5 -5 -6 -7 -7 -8 -3 -0 3 5 7 8 8 7 6 5 4 4 5 5 1 3 3 1 1 0 -1 -2 -6 -7 -8 -8 -9 -8 -8 -7 -9 -12 -13 -12 -14 -12 -5 -3
-5 -5 -8 -7 -6 -5 -4 -3 -4 -6 -4 -4 -1 0 3 6 7 7 6 5 5 4 5 5 5 5 4 -0 1 2 0 0 -1 -5 -7 -8 -9 -9 -8 -8 -9 -12 -12 -12 -10 -10 -7 -3 -3
-5 -4 -3 -7 -6 -7 -5 -5 -6 -5 -4 -3 -3 0 3 5 6 6 6 5 4 4 4 4 4 5 4 2 3 3 1 1 -0 -3 -6 -8 -9 -10 -7 -5 -10 -12 -9 -9 -9 -4 -4 -2 -3
-4 -2 -4 -5 -6 -6 -6 -5 -7 -5 -5 -5 -3 1 3 5 6 6 5 4 3 3 4 3 5 5 3 1 3 1 -2 1 -0 -1 -3 -7 -9 -10 -9 -10 -12 -10 -4 -6 -11 -8 -5 -2 -3
-2 -3 -6 -5 -6 -5 -5 -5 -7 -7 -7 -6 -4 -0 3 4 5 5 4 3 2 3 3 4 5 4 4 3 2 2 1 1 -0 -1 -5 -8 -9 -10 -7 -5 -12 -5 -2 -3 -15 -15 -3 -2 -3
-3 -2 -2 -4 -6 -5 -5 -5 -6 -8 -8 -7 -5 -2 2 3 4 4 4 3 2 3 3 4 5 4 3 3 2 2 2 1 0 -3 -6 -8 -9 -10 -11 -4 -6 -5 -4 -14 -17 -18 -6 -3 -7
-3 -2 -3 -4 -6 -5 -6 -5 -7 -8 -8 -7 -6 -4 -1 2 3 3 3 3 2 3 3 3 4 3 3 2 2 2 1 0 -0 -2 -6 -8 -10 -11 -10 -12 -9 -15 -4 -8 -15 -15 -10 -3 -3
-3 -3 -3 -3 -6 -7 -7 -7 -8 -9 -9 -8 -7 -6 -3 1 3 3 3 3 2 3 3 3 3 3 2 2 2 1 -1 -1 -0 -2 -2 -8 -10 -12 -13 -15 -17 -11 -8 -4 -12 -13 -5 -3 -3
-3 -7 -6 -5 -4 -3 -7 -4 -8 -10 -9 -7 -6 -5 -4 -2 2 3 3 3 2 2 2 2 3 3 2 1 1 1 0 -1 -1 -2 -3 -6 -11 -13 -16 -17 -14 -12 -4 -6 -5 -6 -3 -3 -3
-5 -7 -5 -5 -3 -3 -5 -6 -9 -11 -8 -8 -5 -4 -2 -2 0 2 3 3 2 2 2 2 2 2 2 2 1 2 0 0 -1 -2 -3 -7 -11 -15 -18 -15 -10 -7 -6 -5 -7 -5 -3 -3 -3
-9 -7 -6 -5 -4 -1 -4 -5 -6 -7 -5 -5 -3 -3 -3 -2 -1 1 2 2 2 2 2 2 1 1 1 1 1 1 1 -1 -1 -2 -3 -4 -6 -6 -14 -12 -10 -12 -13 -11 -5 -4 -5 -4 -4
-6 -4 -2 -3 -3 -4 -9 -5 -6 -8 -5 -6 -4 -3 -3 -2 -1 0 1 1 1 1 2 2 1 0 1 1 -0 -1 -0 -1 -1 -2 -4 -6 -6 -6 -10 -9 -11 -15 -17 -13 -7 -7 -10 -10 -6
-6 -6 -3 -1 -2 -4 -8 -5 -8 -7 -7 -5 -3 -3 -1 -1 -1 -0 0 1 1 1 1 1 0 0 0 0 -0 -2 -1 -2 -2 -4 -5 -7 -7 -6 -11 -16 -18 -22 -20 -15 -11 -9 -9 -7 -8
-6 -4 -7 -4 -4 -2 -6 -9 -11 -11 -8 -4 -4 -2 -1 -1 -0 -0 0 1 1 1 1 1 0 -0 0 -0 -1 -3 -2 -3 -4 -4 -7 -7 -8 -13 -15 -13 -19 -23 -22 -16 -10 -8 -8 -8 -8
-8 -9 -5 -5 -0 1 -4 -6 -8 -3 -3 -4 -2 -2 -0 -1 -0 -0 -0 1 1 1 1 1 0 -0 0 -0 -1 -3 -2 -3 -5 -8 -9 -7 -14 -10 -13 -15 -16 -14 -14 -10 -9 -9 -8 -8 -9
-8 -5 -5 -5 -4 -0 1 -2 -5 -3 -3 -3 -2 -1 -1 1 -0 0 1 1 1 1 1 1 0 -0 -0 -1 -2 -2 -3 -4 -7 -10 -11 -9 -10 -9 -9 -11 -11 -10 -9 -10 -9 -9 -9 -9 -8
-8 -8 -8 -4 -4 -2 2 5 -3 -3 -3 -6 -7 -5 -4 -3 1 1 2 2 2 1 1 1 0 -0 -0 -1 -2 -2 -3 -6 -8 -11 -9 -10 -9 -9 -9 -11 -13 -11 -11 -10 -10 -10 -10 -9 -8
Wind_Speed
7 6 5 9 7 8 16 16 2 6 7 4 5 4 11 19 7 2 14 16 19 16 14 15 15 13 13 11 9 8 8 8 7 6 5 4 4 4 4 5 5 6 6 7 8 9 9 8 8
3 7 7 13 8 13 10 6 5 5 11 5 6 2 1 10 11 11 17 19 14 16 14 14 16 14 13 11 10 10 8 7 6 5 3 3 4 4 4 4 5 4 5 6 6 8 9 10 9
4 7 13 10 13 14 9 9 6 6 5 7 5 6 4 6 8 10 12 16 14 14 15 14 15 15 13 11 11 10 9 8 7 6 7 5 6 7 8 8 8 8 9 9 10 11 12 12 11
5 9 12 9 17 8 9 8 2 6 6 5 3 10 9 7 6 9 17 15 16 14 13 14 12 12 12 11 10 9 9 8 8 7 7 7 7 8 9 8 8 8 9 10 10 12 13 13 14
8 12 11 16 16 4 3 5 6 7 8 7 6 10 8 9 12 15 20 17 19 14 13 13 12 10 10 12 11 9 8 8 7 6 5 5 6 5 5 6 8 9 10 10 11 11 13 14 15
15 9 11 13 9 5 4 4 4 3 5 7 4 9 8 11 13 20 20 21 20 17 13 12 8 8 11 10 9 8 7 6 6 5 5 4 4 5 6 8 9 9 10 11 11 12 13 13 14
14 10 14 12 11 3 3 3 6 5 3 9 3 5 11 12 14 17 17 19 19 17 12 9 5 9 12 9 8 7 5 4 4 4 3 4 5 7 8 9 10 10 11 12 12 12 13 14 15
12 8 17 11 9 6 7 4 5 6 8 6 1 3 11 19 18 16 17 17 17 15 12 6 6 8 9 8 6 6 5 5 5 5 4 5 6 7 6 7 7 9 10 11 11 12 12 13 14
9 9 12 9 4 1 5 6 6 4 11 4 2 4 9 23 21 18 17 15 16 13 10 9 9 7 6 6 4 5 5 5 5 5 4 4 4 5 5 5 7 8 9 10 11 11 12 12 12
11 10 8 10 6 6 6 8 4 7 12 8 6 7 18 22 22 20 18 16 13 12 10 9 9 9 8 6 3 2 2 3 4 4 3 4 3 3 5 5 6 7 9 10 11 11 12 11 11
13 13 7 2 5 8 12 6 6 10 11 9 14 15 20 22 22 20 17 15 14 13 12 12 11 9 8 6 5 3 2 1 3 3 3 2 2 2 3 4 6 7 9 9 9 10 11 12 11
11 12 9 8 4 8 10 11 7 12 9 6 2 18 20 21 22 21 19 17 17 17 15 13 11 9 9 5 5 4 2 2 1 4 3 1 2 3 3 5 6 7 9 10 10 11 12 13 13
14 14 7 11 11 12 13 13 14 14 10 3 4 13 17 19 19 18 17 16 16 15 14 13 12 11 10 9 7 6 4 4 2 1 2 1 1 2 4 5 6 7 8 9 9 10 11 12 12
13 13 16 14 14 15 13 16 17 16 17 9 10 14 17 20 21 20 19 18 16 15 14 13 11 10 9 9 7 6 4 3 2 2 1 1 1 2 4 4 5 7 8 9 9 10 10 10 11
12 14 16 16 15 14 9 16 21 20 9 11 11 12 16 19 20 19 17 17 16 14 13 13 11 10 9 7 7 6 5 4 1 1 2 2 2 3 3 5 6 8 9 9 9 10 10 9 9
14 15 14 3 4 6 8 15 9 4 9 13 15 14 15 18 20 19 18 18 16 15 14 13 11 10 10 9 8 7 5 4 3 1 2 2 3 3 4 5 7 8 8 9 9 9 9 9 9
13 11 10 4 10 7 9 14 7 3 5 11 15 16 17 19 21 20 20 19 17 15 14 13 12 12 10 10 9 7 6 5 3 2 2 4 5 6 6 7 8 9 8 9 9 9 10 10 10
14 12 13 14 3 7 13 17 17 16 15 14 14 16 19 21 23 21 19 18 17 16 15 14 13 12 11 10 8 6 5 5 4 3 3 3 5 5 5 6 6 7 7 8 8 9 10 9 12
13 15 18 18 16 19 18 20 20 24 23 16 18 19 22 23 22 22 21 20 18 16 15 14 14 13 10 8 8 6 4 4 3 1 2 4 5 5 5 5 6 6 8 9 10 10 10 10 14
11 15 17 15 15 13 17 22 20 20 23 22 20 21 19 20 23 23 21 19 18 17 16 15 14 13 10 8 8 8 7 6 4 1 2 3 5 5 5 4 6 6 7 9 10 11 10 8 13
12 12 14 17 17 18 22 26 23 21 26 25 18 20 18 20 22 22 22 21 19 17 16 15 14 13 11 11 8 7 6 3 3 3 3 3 4 4 4 5 4 6 6 8 9 9 10 8 9
12 10 9 14 15 15 13 20 21 18 17 12 15 16 17 17 22 22 22 20 20 18 16 16 15 14 12 11 8 8 4 4 6 3 2 3 4 4 4 4 5 6 7 7 9 9 9 8 8
11 9 11 14 15 17 18 12 22 17 14 9 16 11 9 13 21 22 23 22 21 19 17 16 15 14 12 11 9 8 6 6 5 3 2 1 3 3 4 4 5 6 6 8 9 9 9 8 8
12 14 17 17 16 15 17 16 17 7 8 10 10 3 6 10 16 19 21 21 21 20 17 16 15 14 12 11 10 9 9 8 6 4 3 2 2 3 4 5 5 6 7 7 8 8 10 10 9
9 11 11 13 12 16 16 10 11 13 2 5 3 4 5 9 14 18 21 22 22 20 19 17 17 15 13 13 11 11 10 8 7 5 5 3 2 2 2 3 4 5 7 7 8 9 10 10 9
11 11 9 18 16 17 23 13 7 3 6 9 8 4 6 9 13 17 20 21 23 21 19 17 16 15 13 12 11 11 10 8 7 7 5 5 4 3 2 4 5 6 7 8 10 10 9 8 8
5 7 11 14 16 16 18 23 21 24 17 11 9 9 9 9 11 14 17 20 22 22 21 19 18 16 14 13 12 11 10 10 9 8 8 6 6 4 5 6 7 7 8 10 10 9 8 8 8
15 14 13 10 17 19 16 20 14 18 11 11 6 5 6 7 9 11 14 19 20 20 20 20 19 17 16 14 12 11 11 10 9 9 8 8 8 8 8 8 8 8 9 8 8 8 8 8 8
11 13 16 17 14 14 17 14 10 9 8 2 12 8 3 5 8 10 13 16 18 19 20 20 20 20 18 15 14 13 12 11 11 10 10 9 10 10 9 9 9 8 8 8 9 9 8 9 8
14 19 18 13 17 14 12 12 15 6 4 4 8 8 4 3 8 11 14 18 23 24 22 21 20 21 19 17 16 15 14 13 12 11 11 11 11 11 11 10 9 9 9 8 8 8 8 8 8
Wind_Direction
332 325 294 256 245 230 264 264 351 274 199 28 342 349 16 34 20 39 161 148 153 153 153 161 158 163 166 167 161 162 175 181 182 182 190 198 214 233 249 262 264 268 277 283 285 289 291 289 294
312 272 252 267 254 259 261 104 218 36 71 102 113 71 231 85 55 110 146 137 159 149 154 164 169 173 175 175 179 176 168 163 156 155 184 212 242 235 256 261 269 272 274 286 291 290 293 290 289
308 252 264 240 239 263 318 54 8 65 148 158 115 31 74 69 89 124 153 151 155 160 148 170 173 181 180 184 190 194 196 193 185 171 183 207 227 234 247 268 287 285 289 290 292 288 286 289 286
265 231 241 251 266 267 308 26 336 144 182 212 102 101 91 70 136 153 141 152 158 154 159 169 175 186 184 187 189 192 194 200 202 211 224 234 245 252 268 281 284 289 290 289 290 288 287 286 286
252 258 260 249 264 311 313 324 281 189 140 168 200 117 93 106 120 153 151 150 160 159 172 172 185 196 206 202 201 201 205 207 211 219 231 245 253 260 272 292 303 307 309 308 305 300 298 297 293
253 251 264 253 249 88 245 276 250 253 113 130 194 121 95 145 135 156 162 166 168 160 176 180 200 226 235 221 213 210 212 211 222 229 248 267 284 296 304 305 307 306 305 305 305 303 301 297 296
251 275 269 299 292 262 215 309 218 225 203 174 19 197 134 156 150 161 168 166 166 167 179 186 218 234 230 215 195 192 193 202 224 240 252 273 285 294 301 305 307 309 311 310 308 303 300 298 297
279 280 269 257 274 237 95 236 316 249 207 94 273 164 170 172 159 167 164 169 171 176 180 182 158 189 177 181 183 188 194 207 210 219 241 264 275 283 292 299 306 312 314 314 314 314 311 306 301
262 259 258 256 243 218 105 230 187 273 268 226 99 32 131 162 159 157 156 159 176 181 190 187 176 183 184 171 169 195 205 213 222 227 236 251 270 289 304 311 319 323 326 327 327 326 322 320 313
253 272 312 18 9 285 223 243 209 216 204 193 168 126 148 156 165 169 168 169 169 184 189 186 157 162 152 144 136 169 198 216 216 219 228 249 269 289 311 316 324 327 328 324 324 323 320 323 326
274 264 23 269 329 313 301 244 234 237 252 214 194 172 168 170 176 178 178 181 175 171 164 165 172 159 145 149 124 115 125 186 223 223 229 237 262 293 335 339 336 332 327 325 328 329 324 323 319
280 255 281 260 229 255 273 312 276 269 292 35 139 172 176 181 185 184 182 180 176 172 167 164 167 174 168 136 137 134 116 125 220 222 221 240 341 329 332 331 333 333 332 331 332 329 327 325 321
262 282 270 267 254 251 258 249 253 260 258 121 164 175 186 188 190 188 184 181 178 173 166 163 170 181 184 157 157 158 136 157 178 221 219 221 314 330 338 338 338 333 331 329 331 329 330 333 328
330 296 282 267 258 258 258 260 244 245 240 208 191 192 193 193 190 186 185 180 178 173 165 163 159 165 152 162 153 149 161 131 169 220 230 255 309 327 335 334 337 332 333 334 337 334 338 338 335
290 281 276 242 240 257 273 261 252 243 210 221 217 206 197 195 191 190 185 182 177 171 166 155 158 154 153 146 134 147 144 130 140 283 288 309 313 334 353 340 338 337 338 344 345 346 345 344 340
256 263 267 205 158 199 241 279 64 148 211 240 228 214 201 196 192 189 186 181 178 175 165 159 159 158 142 154 131 133 142 123 105 20 306 320 341 352 3 356 341 345 349 348 350 348 348 344 343
228 271 265 228 175 287 224 289 84 158 227 249 232 210 205 200 193 190 187 183 178 176 168 164 162 157 155 145 149 157 142 124 111 83 3 354 3 5 11 359 358 3 359 351 356 352 346 343 338
323 311 305 300 173 199 271 275 278 259 229 246 253 212 206 205 199 191 187 184 179 176 168 167 161 165 154 153 134 128 116 105 92 74 8 8 357 13 42 359 358 18 3 355 351 353 346 348 334
295 284 281 285 291 293 277 272 269 274 269 223 236 227 211 206 198 191 188 184 179 176 169 167 169 167 158 146 144 137 133 124 106 49 360 355 2 8 22 21 7 27 356 355 353 354 352 350 339
279 280 279 286 290 293 284 279 283 283 274 256 233 231 221 206 194 190 187 187 183 179 174 172 171 172 158 160 157 159 152 152 152 142 3 5 358 3 9 14 8 7 13 354 355 1 4 355 354
270 277 291 299 311 289 281 275 273 261 254 242 238 249 223 207 197 191 192 191 186 186 180 174 174 170 163 176 161 157 165 142 108 80 38 7 356 356 358 357 356 11 16 7 6 9 7 8 1
279 298 299 286 289 287 312 294 284 281 278 219 248 217 242 211 200 198 198 198 193 189 182 177 177 174 178 168 170 162 151 155 165 140 136 342 351 351 358 4 19 27 25 22 19 16 23 27 9
279 303 273 284 278 289 276 264 284 288 239 224 201 187 218 219 195 200 201 198 193 191 185 178 177 179 181 174 172 166 161 174 152 147 96 357 346 356 7 26 34 36 38 28 32 33 36 32 37
280 274 265 261 259 265 281 274 283 328 6 34 57 134 209 198 195 196 196 195 193 191 186 180 174 175 172 169 167 163 169 162 163 158 137 129 82 14 33 37 37 38 45 51 47 49 42 43 41
231 270 278 275 263 265 290 266 272 306 112 2 144 161 184 189 189 191 190 192 190 190 187 180 175 173 172 175 171 177 170 163 167 158 164 150 127 100 59 60 76 58 64 65 67 59 50 48 46
296 272 271 288 290 294 300 277 288 104 158 160 177 197 204 198 193 194 195 194 191 190 189 182 179 174 170 165 165 176 173 159 166 163 165 157 153 137 126 109 94 85 83 82 74 64 62 63 52
277 255 270 290 287 282 277 272 261 258 208 167 215 182 196 201 200 199 196 195 193 192 189 184 181 178 172 167 176 179 172 171 173 174 168 161 162 143 142 124 106 100 96 86 80 81 73 68 56
249 276 280 258 269 270 279 292 302 19 44 9 179 196 193 207 207 202 200 198 198 194 191 184 183 183 176 173 179 183 177 179 177 180 172 170 171 157 138 125 117 106 94 92 91 79 75 71 63
290 237 240 255 256 271 272 270 32 17 41 70 71 37 0 224 231 224 208 205 202 199 196 190 185 183 180 177 183 179 175 178 184 178 177 169 159 151 141 136 126 114 106 96 92 89 81 75 67
277 274 272 272 275 271 266 271 295 305 54 59 10 356 12 300 245 232 223 210 203 200 198 195 190 187 185 183 182 179 181 181 180 176 173 170 159 153 149 140 135 126 113 102 100 97 88 82 72
Height
1496 1495 1497 1497 1492 1472 1464 1446 1445 1455 1460 1467 1466 1464 1466 1470 1472 1486 1497 1500 1502 1506 1508 1510 1512 1514 1516 1517 1519 1521 1522 1523 1524 1524 1525 1526 1527 1527 1528 1528 1528 1528 1528 1528 1528 1527 1527 1527 1526
1495 1497 1496 1489 1483 1469 1450 1436 1453 1453 1465 1472 1473 1473 1471 1480 1487 1492 1498 1501 1504 1507 1507 1509 1511 1514 1516 1518 1519 1521 1522 1523 1524 1524 1525 1526 1527 1527 1527 1526 1527 1527 1527 1527 1527 1527 1526 1525 1526
1493 1496 1492 1476 1469 1465 1452 1450 1453 1464 1472 1472 1474 1476 1479 1489 1494 1496 1497 1502 1505 1506 1508 1508 1510 1513 1515 1518 1520 1521 1523 1523 1524 1524 1525 1525 1526 1527 1527 1526 1526 1526 1526 1526 1525 1525 1524 1524 1524
1495 1492 1487 1478 1468 1448 1455 1455 1461 1468 1473 1473 1472 1479 1489 1494 1496 1495 1498 1502 1505 1507 1507 1509 1510 1512 1514 1517 1519 1520 1522 1523 1523 1523 1523 1524 1525 1526 1526 1525 1526 1525 1525 1525 1524 1524 1523 1522 1522
1492 1484 1474 1465 1458 1451 1461 1464 1463 1463 1467 1473 1475 1479 1490 1496 1493 1495 1498 1502 1504 1506 1507 1509 1510 1512 1513 1515 1517 1519 1521 1522 1522 1523 1523 1523 1524 1524 1525 1524 1525 1525 1525 1524 1523 1523 1522 1521 1521
1486 1479 1472 1462 1447 1454 1464 1470 1467 1465 1469 1475 1477 1479 1492 1495 1495 1495 1497 1500 1503 1505 1506 1508 1511 1512 1513 1515 1517 1518 1520 1521 1522 1522 1523 1524 1524 1524 1524 1524 1523 1523 1523 1522 1521 1521 1520 1519 1519
1482 1469 1466 1457 1457 1459 1462 1472 1468 1468 1470 1472 1477 1474 1492 1495 1496 1495 1498 1500 1503 1504 1506 1508 1510 1511 1513 1515 1516 1518 1519 1521 1522 1522 1523 1524 1524 1524 1523 1523 1523 1522 1522 1521 1520 1519 1518 1517 1517
1483 1472 1466 1457 1458 1459 1464 1471 1473 1473 1468 1475 1479 1472 1485 1492 1494 1495 1498 1501 1503 1504 1506 1508 1510 1511 1512 1513 1516 1517 1518 1519 1520 1520 1521 1522 1522 1522 1522 1521 1521 1520 1520 1520 1519 1518 1517 1516 1514
1483 1475 1462 1452 1461 1459 1468 1470 1474 1475 1474 1477 1480 1481 1484 1488 1494 1497 1499 1501 1502 1504 1505 1508 1510 1511 1513 1513 1515 1517 1517 1518 1519 1519 1520 1520 1520 1520 1520 1520 1520 1519 1518 1518 1517 1516 1515 1514 1513
1478 1468 1457 1459 1462 1466 1469 1469 1467 1472 1471 1476 1482 1485 1486 1489 1493 1496 1498 1501 1502 1503 1505 1507 1510 1511 1513 1513 1514 1516 1517 1517 1517 1518 1519 1519 1519 1519 1519 1519 1518 1518 1517 1516 1515 1514 1513 1512 1511
1471 1469 1464 1466 1471 1471 1465 1468 1469 1467 1464 1465 1475 1483 1485 1488 1491 1494 1496 1499 1501 1504 1507 1508 1508 1511 1514 1513 1515 1517 1517 1516 1516 1517 1517 1517 1517 1517 1517 1517 1516 1516 1515 1515 1513 1512 1511 1509 1509
1479 1469 1471 1468 1472 1473 1470 1467 1468 1468 1465 1469 1471 1478 1483 1486 1489 1491 1494 1496 1499 1501 1502 1504 1506 1508 1510 1512 1514 1514 1516 1516 1515 1515 1516 1516 1516 1516 1515 1515 1515 1515 1514 1513 1512 1511 1510 1508 1507
1475 1469 1471 1472 1472 1471 1470 1469 1467 1467 1469 1472 1476 1480 1483 1485 1489 1491 1494 1498 1500 1502 1503 1503 1502 1504 1507 1509 1509 1511 1513 1514 1514 1513 1514 1514 1514 1514 1514 1514 1514 1513 1512 1511 1510 1509 1508 1507 1506
1475 1476 1472 1469 1468 1468 1469 1466 1465 1467 1465 1471 1474 1476 1480 1482 1485 1489 1492 1496 1500 1500 1501 1502 1503 1504 1506 1506 1507 1509 1510 1511 1512 1512 1512 1512 1512 1512 1513 1512 1511 1510 1510 1509 1508 1507 1506 1506 1506
1480 1476 1467 1462 1464 1464 1468 1464 1460 1462 1466 1469 1472 1474 1476 1480 1485 1489 1493 1496 1499 1501 1501 1502 1503 1504 1504 1504 1506 1508 1509 1511 1511 1510 1511 1511 1511 1511 1512 1511 1510 1509 1508 1507 1506 1506 1505 1506 1505
1475 1469 1468 1447 1461 1465 1471 1460 1449 1455 1462 1466 1466 1470 1475 1478 1482 1487 1491 1494 1497 1499 1500 1501 1502 1502 1503 1503 1506 1507 1508 1509 1510 1510 1509 1509 1509 1509 1510 1509 1509 1508 1507 1506 1505 1505 1504 1504 1503
1461 1466 1456 1452 1458 1462 1466 1458 1454 1461 1463 1462 1462 1467 1473 1477 1480 1484 1488 1491 1494 1496 1498 1499 1500 1501 1501 1502 1504 1504 1506 1508 1509 1509 1509 1508 1508 1508 1508 1508 1508 1507 1507 1506 1505 1504 1503 1503 1501
1463 1466 1462 1462 1455 1461 1464 1459 1452 1453 1455 1459 1460 1462 1468 1473 1477 1483 1487 1490 1493 1494 1495 1497 1498 1499 1500 1501 1502 1504 1505 1507 1508 1508 1507 1507 1506 1506 1506 1507 1506 1507 1506 1505 1503 1502 1502 1502 1499
1473 1472 1468 1460 1456 1457 1458 1455 1453 1449 1448 1448 1455 1458 1461 1467 1474 1480 1484 1487 1490 1492 1494 1496 1497 1497 1499 1501 1504 1505 1507 1507 1508 1506 1506 1505 1505 1505 1505 1506 1506 1506 1504 1503 1501 1500 1500 1501 1497
1475 1473 1467 1459 1458 1458 1458 1451 1444 1442 1440 1441 1446 1451 1458 1465 1470 1476 1482 1486 1488 1489 1491 1493 1495 1496 1500 1503 1504 1505 1506 1506 1506 1505 1504 1504 1504 1504 1504 1505 1505 1504 1504 1502 1501 1500 1499 1501 1498
1470 1469 1467 1467 1462 1460 1456 1443 1436 1428 1425 1433 1440 1446 1450 1460 1469 1475 1480 1483 1485 1488 1490 1491 1494 1495 1499 1500 1500 1502 1503 1504 1506 1506 1505 1503 1503 1503 1503 1503 1503 1503 1503 1502 1500 1499 1499 1500 1500
1475 1465 1471 1471 1468 1465 1450 1451 1438 1429 1428 1430 1438 1441 1451 1455 1464 1472 1477 1481 1484 1486 1487 1490 1492 1494 1496 1497 1500 1502 1506 1507 1506 1506 1504 1503 1503 1503 1502 1502 1502 1502 1502 1501 1500 1499 1500 1499 1499
1469 1467 1468 1467 1463 1457 1448 1447 1417 1418 1421 1421 1430 1442 1450 1454 1458 1467 1473 1476 1480 1484 1486 1488 1490 1493 1493 1495 1498 1500 1503 1503 1504 1504 1503 1503 1502 1501 1501 1501 1501 1501 1500 1500 1499 1499 1499 1498 1498
1466 1467 1463 1457 1454 1459 1441 1435 1421 1418 1427 1431 1441 1447 1451 1453 1458 1465 1470 1474 1478 1481 1483 1485 1488 1491 1492 1493 1495 1498 1500 1502 1503 1504 1505 1505 1504 1502 1501 1500 1500 1500 1499 1500 1499 1500 1499 1498 1497
1464 1466 1465 1460 1452 1446 1422 1430 1426 1422 1430 1435 1440 1448 1453 1455 1457 1462 1466 1470 1474 1478 1482 1484 1486 1487 1489 1491 1492 1494 1497 1499 1501 1502 1504 1504 1505 1504 1501 1500 1500 1500 1499 1500 1500 1499 1498 1498 1499
1459 1457 1465 1470 1460 1449 1431 1438 1419 1425 1431 1435 1442 1448 1453 1456 1457 1460 1464 1468 1471 1475 1479 1482 1484 1485 1487 1489 1492 1493 1494 1496 1499 1501 1502 1502 1504 1502 1501 1499 1499 1500 1500 1500 1499 1499 1500 1501 1502
1457 1460 1452 1457 1453 1457 1440 1428 1419 1413 1419 1433 1439 1443 1450 1456 1459 1461 1463 1466 1468 1471 1475 1478 1482 1485 1486 1488 1489 1490 1493 1494 1496 1496 1498 1500 1500 1499 1501 1499 1499 1500 1501 1500 1500 1501 1503 1502 1503
1460 1455 1460 1452 1464 1458 1438 1430 1421 1426 1427 1437 1442 1447 1451 1454 1459 1461 1462 1465 1468 1470 1472 1475 1479 1482 1483 1484 1487 1488 1490 1492 1493 1494 1495 1498 1497 1499 1499 1499 1500 1501 1501 1502 1502 1502 1503 1503 1503
1453 1449 1448 1446 1449 1456 1453 1440 1430 1437 1439 1440 1444 1451 1450 1456 1459 1461 1462 1465 1467 1469 1471 1473 1475 1477 1479 1481 1483 1486 1488 1489 1491 1492 1494 1497 1496 1498 1499 1499 1501 1502 1503 1502 1501 1502 1503 1504 1504
1458 1456 1452 1454 1451 1440 1450 1456 1437 1442 1440 1448 1451 1451 1451 1455 1457 1459 1459 1461 1462 1464 1468 1470 1474 1474 1476 1478 1480 1483 1484 1486 1489 1489 1494 1494 1496 1497 1498 1499 1501 1502 1501 1502 1502 1503 1503 1505 1504